This demonstration page uses our WeatherBlox Daily Observations layout. Learn more.

Hourly Observations for June 5, 2019

Temp ( °F °C ) Dew Point ( °F °C ) Humidity (%) Winds ( mph kmh ) Pressure ( in mb ) Visibility ( mi km ) Precip ( " mm )
12:15 am 00:15 Clear 68 20 55 13 64 64 S 6 9 30.03 1017 10 16.09344 0 0
12:35 am 00:35 Clear 66 19 55 13 68 68 S 7 11 30.03 1017 10 16.09344 0 0
12:55 am 00:55 Clear 64 18 55 13 73 73 SSW 7 11 30.03 1017 10 16.09344 0 0
1:35 am 01:35 Clear 64 18 54 12 68 68 SSW 8 13 30.03 1017 10 16.09344 0 0
1:55 am 01:55 Clear 64 18 54 12 68 68 SSW 5 7 30.03 1017 10 16.09344 0 0
2:15 am 02:15 Clear 63 17 54 12 73 73 SSW 5 7 30.03 1017 10 16.09344 0 0
2:35 am 02:35 Clear 63 17 54 12 73 73 SW 3 6 30 1016 10 16.09344 0 0
2:55 am 02:55 Clear 63 17 54 12 73 73 Calm 30 1016 10 16.09344 0 0
3:15 am 03:15 Clear 63 17 54 12 73 73 SSW 7 11 29.97 1015 10 16.09344 0 0
3:35 am 03:35 Clear 63 17 54 12 73 73 SSW 5 7 29.97 1015 10 16.09344 0 0
3:55 am 03:55 Clear 61 16 54 12 77 77 SSW 5 7 29.97 1015 10 16.09344 0 0
4:15 am 04:15 Clear 61 16 54 12 77 77 SSW 7 11 30 1016 10 16.09344 0 0
4:35 am 04:35 Clear 61 16 54 12 77 77 SW 5 7 29.97 1015 10 16.09344 0 0
4:55 am 04:55 Clear 59 15 55 13 88 88 WSW 5 7 29.97 1015 10 16.09344 0 0
5:15 am 05:15 Clear 59 15 55 13 88 88 Calm 29.97 1015 10 16.09344 0 0
5:35 am 05:35 Clear 59 15 55 13 88 88 Calm 29.97 1015 10 16.09344 0 0
5:55 am 05:55 Sunny 61 16 55 13 83 83 Calm 29.97 1015 10 16.09344 0 0
6:15 am 06:15 Sunny 59 15 54 12 82 82 Calm 29.97 1015 10 16.09344 0 0
6:35 am 06:35 Sunny 61 16 55 13 83 83 Calm 29.97 1015 10 16.09344 0 0
6:55 am 06:55 Sunny 61 16 55 13 83 83 Calm 29.97 1015 10 16.09344 0 0
7:15 am 07:15 Sunny 63 17 55 13 77 77 SSW 5 7 29.97 1015 10 16.09344 0 0
7:35 am 07:35 Sunny 63 17 55 13 77 77 SW 3 6 29.97 1015 10 16.09344 0 0
7:55 am 07:55 Sunny 64 18 57 14 78 78 S 3 6 29.97 1015 10 16.09344 0 0
8:15 am 08:15 Sunny 66 19 59 15 78 78 Calm 29.97 1015 10 16.09344 0 0
8:35 am 08:35 Sunny 68 20 59 15 73 73 Calm 29.97 1015 10 16.09344 0 0
8:55 am 08:55 Sunny 68 20 59 15 73 73 SW 3 6 29.97 1015 10 16.09344 0 0
9:15 am 09:15 Sunny 70 21 59 15 69 69 Calm 29.97 1015 10 16.09344 0 0
9:35 am 09:35 Sunny 70 21 59 15 69 69 S 5 7 29.94 1014 5 8.04672 0 0
9:55 am 09:55 Partly Cloudy 70 21 61 16 73 73 S 5 7 29.94 1014 10 16.09344 0 0
10:15 am 10:15 Cloudy 72 22 61 16 69 69 S 6 9 29.94 1014 10 16.09344 0 0
10:35 am 10:35 Cloudy 72 22 63 17 73 73 S 8 13 29.94 1014 10 16.09344 0 0
10:55 am 10:55 Cloudy 72 22 63 17 73 73 S 9 15 29.94 1014 10 16.09344 0 0
11:15 am 11:15 Cloudy 72 22 63 17 73 73 SW 7 11 29.94 1014 10 16.09344 0 0
11:35 am 11:35 Cloudy 73 23 63 17 69 69 SSW 8 13 29.94 1014 10 16.09344 0 0
11:55 am 11:55 Mostly Cloudy 73 23 63 17 69 69 S 9 15 29.94 1014 10 16.09344 0 0
12:15 pm 12:15 Mostly Cloudy 77 25 64 18 65 65 SW 9 15 29.91 1013 10 16.09344 0 0
12:35 pm 12:35 Cloudy 77 25 66 19 69 69 S 8 13 29.91 1013 10 16.09344 0 0
12:55 pm 12:55 Partly Cloudy 79 26 66 19 65 65 SW 7 11 29.91 1013 10 16.09344 0 0
1:35 pm 13:35 Cloudy 79 26 68 20 70 70 SW 6 9 29.91 1013 10 16.09344 0 0
1:55 pm 13:55 Mostly Cloudy 79 26 68 20 70 70 SSW 5 7 29.88 1012 10 16.09344 0 0
2:15 pm 14:15 Mostly Cloudy 79 26 68 20 70 70 WSW 6 9 29.88 1012 10 16.09344 0 0
2:35 pm 14:35 Mostly Cloudy 79 26 68 20 70 70 SW 10 17 29.88 1012 10 16.09344 0 0
2:55 pm 14:55 Cloudy 77 25 70 21 79 79 WSW 7 11 29.88 1012 10 16.09344 0 0
3:15 pm 15:15 Partly Cloudy 77 25 70 21 79 79 WSW 5 7 29.88 1012 10 16.09344 0 0
3:55 pm 15:55 Cloudy 77 25 70 21 79 79 WSW 9 15 29.85 1011 10 16.09344 0 0
4:15 pm 16:15 Mostly Cloudy 77 25 70 21 79 79 WSW 7 11 29.85 1011 10 16.09344 0 0
4:35 pm 16:35 Cloudy 77 25 70 21 79 79 W 7 11 29.83 1010 10 16.09344 0 0
4:55 pm 16:55 Partly Cloudy 77 25 70 21 79 79 WSW 8 13 29.83 1010 10 16.09344 0 0
5:15 pm 17:15 Sunny 79 26 70 21 74 74 WSW 7 11 29.83 1010 10 16.09344 0 0
5:35 pm 17:35 Sunny 79 26 70 21 74 74 SSW 7 11 29.8 1009 10 16.09344 0 0
5:55 pm 17:55 Sunny 79 26 72 22 79 79 SSW 3 6 29.8 1009 10 16.09344 0 0
6:15 pm 18:15 Sunny 79 26 70 21 74 74 S 9 15 29.77 1008 10 16.09344 0 0
6:35 pm 18:35 Sunny 77 25 68 20 74 74 WSW 8 13 29.77 1008 10 16.09344 0 0
6:55 pm 18:55 Sunny 77 25 68 20 74 74 WSW 5 7 29.77 1008 10 16.09344 0 0
7:15 pm 19:15 Sunny 77 25 68 20 74 74 Calm 29.77 1008 10 16.09344 0 0
7:35 pm 19:35 Sunny 77 25 68 20 74 74 SSW 3 6 29.77 1008 10 16.09344 0 0
7:55 pm 19:55 Mostly Cloudy 75 24 70 21 83 83 Calm 29.8 1009 10 16.09344 0 0
8:15 pm 20:15 Partly Cloudy 75 24 70 21 83 83 Calm 29.8 1009 10 16.09344 0 0
8:35 pm 20:35 Partly Cloudy 73 23 70 21 89 89 Calm 29.8 1009 10 16.09344 0 0
8:55 pm 20:55 Mostly Cloudy 73 23 70 21 89 89 SSW 5 7 29.8 1009 10 16.09344 0 0
9:15 pm 21:15 Cloudy 73 23 70 21 89 89 Calm 29.8 1009 10 16.09344 0 0
9:35 pm 21:35 Cloudy 73 23 70 21 89 89 W 3 6 29.8 1009 10 16.09344 0 0
9:55 pm 21:55 Cloudy 73 23 70 21 89 89 W 5 7 29.8 1009 10 16.09344 0 0
10:15 pm 22:15 Cloudy 73 23 70 21 89 89 WSW 6 9 29.83 1010 10 16.09344 0 0
10:35 pm 22:35 Cloudy 72 22 70 21 94 94 WSW 5 7 29.8 1009 10 16.09344 0 0
10:55 pm 22:55 Cloudy 73 23 70 21 89 89 WSW 6 9 29.8 1009 10 16.09344 0 0
11:15 pm 23:15 Cloudy 73 23 70 21 89 89 SW 5 7 29.8 1009 10 16.09344 0 0
11:35 pm 23:35 Mostly Cloudy 73 23 70 21 89 89 SW 5 7 29.8 1009 10 16.09344 0 0
11:55 pm 23:55 Partly Cloudy 73 23 70 21 89 89 WSW 7 11 29.8 1009 10 16.09344 0 0

Powered by AerisWeather